Tracking 31027 objects as of 19-Jul-2025
HD Live streaming from Space Station
objects crossing your sky now

SL-14 DEB

Track SL-14 DEB now!
10-day predictions


NORAD ID: 45346
Int'l Code: 1991-056CF
Perigee: 1,075.3 km
Apogee: 1,189.7 km
Inclination: 82.6 °
Period: 107.8 minutes
Semi major axis: 7503 km
RCS: Unknown
Launch date: August 15, 1991
Source: Commonwealth of Independent States (former USSR) (CIS)
Launch site: PLESETSK MISSILE AND SPACE COMPLEX (PKMTR)

Note: This is SATELLITE DEBRIS
Your satellite tracking list
PRISMA
Track 1 satellite(s)




NASA's NSSDC Master Catalog

Two Line Element Set (TLE):
1 45346U 91056CF  25199.71843659  .00002445  00000-0  47001-2 0  9991
2 45346  82.6364   6.0857 0076291 345.1746  14.7149 13.35693594260231
Source of the keplerian elements: AFSPC